Skip Page Navigation
NASA JPL Caltech
NASA Logo - Jet Propulsion Laboratory + View the NASA Portal
+ Center for Near-Earth Object Studies
JPL Home Earth Solar System Stars & Galaxies Technology
JPL Solar System Dynamics
BODIES ORBITS EPHEMERIDES TOOLS PHYSICAL DATA DISCOVERY FAQ SITE MAP
JPL Small-Body Database Browser
Search: [ help ]  
(2004 FH)
Classification: Aten [NEO]          SPK-ID: 3177202
Ephemeris | Orbit Diagram | Orbital Elements | Mission Design | Physical Parameters | Close-Approach Data ]

[ hide orbit diagram ]

For accurate long-term ephemerides, please instead use our Horizons system.This orbit viewer was implemented using two-body methods, and hence should not be used for determining accurate long-term trajectories (over several years or decades) or planetary encounter circumstances.


Orbital Elements at Epoch 2459200.5 (2020-Dec-17.0) TDB
Reference: JPL 26 (heliocentric ecliptic J2000)
 Element Value Uncertainty (1-sigma)   Units 
e .288609192590188 9.5442e-08  
a .8184342647531074 2.8617e-08 au
q .582226612414569 9.8153e-08 au
i .02155788993438002 2.34e-07 deg
node 287.7749503255037 0.0016569 deg
peri 39.96141197130175 0.0016563 deg
M 100.013609559181 3.6679e-05 deg
tp 2459125.366999573634
(2020-Oct-02.86699957)
2.3668e-05 TDB
period 270.4419955714794
0.74
1.4184e-05
3.883e-08
d
yr
n 1.331154206428897 6.9816e-08 deg/d
Q 1.054641917091646 3.6876e-08 au

Additional Model Parameters
 Parameter Value Uncertainty (1-sigma) 
A2 [EST] 1.668782836964816E-13 4.134E-14
ALN [SET] 1. n/a
NK [SET] 0. n/a
NM [SET] 2. n/a
R0 [SET] 1. n/a
  Orbit Determination Parameters
   # obs. used (total)      269  
   data-arc span      6184 days (16.93 yr)  
   first obs. used      2004-03-16  
   last obs. used      2021-02-19  
   planetary ephem.      DE441  
   SB-pert. ephem.      SB441-N16  
   condition code      1  
   norm. resid. RMS      .2315  
   source      ORB  
   producer      Otto Matic  
   solution date      2021-Apr-14 22:10:58  

Additional Information
 Earth MOID = 8.73331E-6 au 
 Jupiter MOID = 4.22561 au 
 T_jup = 7.117 
 Nongravitational accels. using nonstandard g(r) = (1 au/ r)^2 
[ show covariance matrix ]

Ephemeris | Orbit Diagram | Orbital Elements | Mission Design | Physical Parameters | Close-Approach Data ]

Physical Parameter Table
Parameter Symbol Value Units Sigma Reference Notes
absolute magnitude H 26.41   n/a E2021D74  
rotation period rot_per 0.0504 h n/a LCDB (Rev. 2020-October); Warner et al., 2009 Published Reference List:
[Behrend, R. (2004) Observatoire de Geneve web site, http://obswww.unige.ch/~behrend/page_cou.html]
[Pravec, P.; Wolf, M.; Sarounova, L. (2004) http://www.asu.cas.cz/~ppravec/neo.htm]

[ hide close-approach data ]
Close-Approach Data   ...sorted by Date/Time (TDB)
Date/Time (TDB) Time Uncertainty
(days_HH:MM)
Body Nominal Distance (au) Minimum Distance (au) Maximum Distance (au) V-relative (km/s) V-infinity (km/s) JD (TDB) Time Uncertainty (minutes) Semi-major axis (km) Semi-minor axis (km) range-LOV angle (deg) N-sigma BP Orbit Ref. Reference Modified
1901-Sep-03 17:12 00:39 Earth 0.475402888588484 0.475393867881548 0.475411914903152 17.3931431179849 17.392820880178 2415631.216649683 38.8942489850709 2622.53440825866 37.3240203948403 -80.1543969888167 1240270.17081377 T 26 CATAB v2.0g-lin.ifort 2021-Apr-14 22:10:59 2021-Apr-14 22:11
1903-Oct-19 12:55 00:46 Earth 0.415127133427181 0.415060814264275 0.415193456627976 13.151435902638 13.1509478506097 2416407.038154910 45.7013467562846 3886.64416367908 28.6373710805746 -31.7063421605572 644385.686510076 T 26 CATAB v2.0g-lin.ifort 2021-Apr-14 22:10:59 2021-Apr-14 22:11
1903-Nov-07 15:57 00:17 Venus 0.0656799551326325 0.0654410509284762 0.0659195294358176 13.9248344248098 13.9224598651289 2416426.164387268 17.4229443008616 15867.6576037816 16.610525653693 -41.2568016678343 371087.639169209 T 26 CATAB v2.0g-lin.ifort 2021-Apr-14 22:10:59 2021-Apr-14 22:11
1904-Mar-20 08:41 00:13 Earth 0.302306852607007 0.302050862293022 0.302562842917279 16.9789100496566 16.9783909375032 2416559.862108840 12.5394085828182 12765.0926628442 7.6884138345283 0.425189436432554 36140.342484036 T 26 CATAB v2.0g-lin.ifort 2021-Apr-14 22:10:59 2021-Apr-14 22:11
1906-Feb-26 20:15 01:37 Earth 0.0459801886194214 0.0459403232754411 0.0460200802990733 6.01749202347249 6.0078543099933 2417268.343915873 96.7500046378092 2640.26237755309 28.2843608187123 -41.1383462988984 138599.963494462 T 26 CATAB v2.0g-lin.ifort 2021-Apr-14 22:10:59 2021-Apr-14 22:11
1908-Feb-01 01:07 00:11 Earth 0.309296784473842 0.309096829067343 0.309496741134392 16.9504724724202 16.9499642408317 2417972.546553297 10.6800886714242 10019.2488570261 21.9110130766065 -5.64725135072882 174777.486470373 T 26 CATAB v2.0g-lin.ifort 2021-Apr-14 22:10:59 2021-Apr-14 22:11
1908-Jul-01 14:04 01:26 Venus 0.137138293674913 0.136984629327521 0.137292078085261 8.39125321780582 8.38936595570654 2418124.086313760 85.85037770681 9985.67806280655 19.2623453967963 -39.8839507332175 469584.080439192 T 26 CATAB v2.0g-lin.ifort 2021-Apr-14 22:10:59 2021-Apr-14 22:11
1908-Jul-01 22:12 00:38 Earth 0.419231315952285 0.41917249421632 0.419290137777067 12.3412122466624 12.3406972435179 2418124.425108502 37.5278963913281 2948.94798065485 16.1447777501841 6.03679028632789 194806.340142336 T 26 CATAB v2.0g-lin.ifort 2021-Apr-14 22:10:59 2021-Apr-14 22:11
1909-May-17 21:09 00:14 Venus 0.0726881312623068 0.0725080302000239 0.0728684848597333 8.75218227987332 8.74876819902288 2418444.381182349 13.5836807385564 11244.2450069664 18.604204021287 36.9090633344485 498259.967408684 T 26 CATAB v2.0g-lin.ifort 2021-Apr-14 22:10:59 2021-Apr-14 22:11
1910-Aug-18 06:59 00:24 Earth 0.476530260732945 0.476521809987661 0.476538712793684 17.2547022404407 17.2543781856239 2418901.791216569 24.0775726894695 1325.2453287094 47.317952432289 71.5689501719601 946268.4235838 T 26 CATAB v2.0g-lin.ifort 2021-Apr-14 22:10:59 2021-Apr-14 22:11
1912-Sep-30 19:44 00:19 Earth 0.448052366739624 0.448037098033241 0.448067636672559 15.5449519369705 15.5445693769857 2419676.322277685 18.5159694511248 1398.02166976022 58.5060933643245 -57.0814949948902 610670.754759185 T 26 CATAB v2.0g-lin.ifort 2021-Apr-14 22:10:59 2021-Apr-14 22:11
1913-Mar-14 22:41 00:06 Earth 0.45263384877896 0.452525195603271 0.45274250196036 22.0134532509076 22.0131858395857 2419841.445217059 6.22160378049511 5418.68721215878 12.881345026131 0.908877577911283 73047.543719398 T 26 CATAB v2.0g-lin.ifort 2021-Apr-14 22:10:59 2021-Apr-14 22:11
1913-Dec-25 09:01 00:11 Venus 0.0609123942733119 0.0608379959960988 0.0609869538003293 9.75435613942797 9.75070064562758 2420126.875657777 11.0013542756225 6182.80459462114 18.15889176447 -53.0656967509629 346029.548758049 T 26 CATAB v2.0g-lin.ifort 2021-Apr-14 22:10:59 2021-Apr-14 22:11
1914-Nov-30 09:49 00:29 Earth 0.306468952997947 0.306425182213663 0.306512724122231 5.30641851807909 5.30477984833726 2420466.908762634 29.4632776981496 2241.2808519698 16.2030001987487 13.9631306234257 108060.461624651 T 26 CATAB v2.0g-lin.ifort 2021-Apr-14 22:10:59 2021-Apr-14 22:11
1915-Mar-24 08:14 00:04 Earth 0.0461683471237783 0.0461018381960725 0.0462348559971099 8.39986353671027 8.39299010657073 2420580.843087398 4.31131398288647 3315.58735243119 31.8284980589826 0.115928163186664 1875.58163401139 T 26 CATAB v2.0g-lin.ifort 2021-Apr-14 22:10:59 2021-Apr-14 22:11
1917-Jan-27 00:05 00:01 Earth 0.150615881643276 0.150595565833763 0.150636197679165 11.4815891765539 11.480048296873 2421255.503643091 1.05587089854147 1054.16298397164 42.2634000877784 -16.0896906129293 146320.538870249 T 26 CATAB v2.0g-lin.ifort 2021-Apr-14 22:10:59 2021-Apr-14 22:11
1917-Jun-08 10:46 00:05 Earth 0.361227705782584 0.361215574336192 0.361239837228566 8.25550146608471 8.25460793153716 2421387.948311431 5.14890451013306 604.644260944456 16.5759599261514 0.540431952943714 35581.2421512744 T 26 CATAB v2.0g-lin.ifort 2021-Apr-14 22:10:59 2021-Apr-14 22:11
1919-Jul-03 07:13 00:04 Venus 0.107130176555503 0.107079325132938 0.107181033507991 16.1496987060147 16.1484435157041 2422142.800924127 3.88144352693987 2811.42635203966 23.6782317064019 25.5865530274571 252936.459524449 T 26 CATAB v2.0g-lin.ifort 2021-Apr-14 22:10:59 2021-Apr-14 22:11
1919-Jul-30 20:09 00:08 Earth 0.465008483480982 0.4650069483451 0.465010018649006 16.0195162856778 16.0191585955688 2422170.339849387 7.98925654229857 333.946514086949 61.6325679899186 82.0523931811868 700356.587598377 T 26 CATAB v2.0g-lin.ifort 2021-Apr-14 22:10:59 2021-Apr-14 22:11
1921-Sep-10 18:59 00:16 Earth 0.471764910108995 0.471751124279187 0.471778697152878 17.1817136515885 17.181384932897 2422943.291014947 16.3348883244036 1377.36495987727 9.28459335350559 -60.0623777592572 4924721.95624256 T 26 CATAB v2.0g-lin.ifort 2021-Apr-14 22:10:59 2021-Apr-14 22:11
1923-Oct-27 04:37 00:31 Earth 0.397923381872189 0.397864893851705 0.397981871125992 11.9539410892275 11.9533809293966 2423719.692564238 31.403601112442 3118.79872188043 8.59650780587014 -20.7772909863646 1214478.14758328 T 26 CATAB v2.0g-lin.ifort 2021-Apr-14 22:10:59 2021-Apr-14 22:11
1924-Mar-22 00:51 00:07 Earth 0.244803776979682 0.244636042068559 0.244971511881064 15.046673991325 15.0459506151998 2423866.535074948 6.87202762134293 8363.90724290809 7.50772217676394 -0.266920545128593 18283.1816610099 T 26 CATAB v2.0g-lin.ifort 2021-Apr-14 22:10:59 2021-Apr-14 22:11
1926-Feb-13 20:12 01:24 Earth 0.0465623721856536 0.0465432789161917 0.0465816161219025 6.12454999069922 6.11519949304653 2424560.341440580 84.3842661288586 4288.35769738064 16.2045934272966 77.1039586473176 347176.277320872 T 26 CATAB v2.0g-lin.ifort 2021-Apr-14 22:10:59 2021-Apr-14 22:11
1926-Aug-14 04:05 00:15 Venus 0.103515634098868 0.103243468922222 0.103787949858059 16.0987995384129 16.0974964103912 2424741.670336133 14.9994490368011 14935.1504921236 16.5831853400622 -24.6440960289295 362224.781143222 T 26 CATAB v2.0g-lin.ifort 2021-Apr-14 22:10:59 2021-Apr-14 22:11
